SXM-8

Last updated on Sun Apr 12 2026 00:02:55 GMT+0000 (Coordinated Universal Time)

1 48838U 21049A 26100.93782977 -.00000204 00000+0 00000+0 0 9993 2 48838 0.0449 46.6119 0004792 356.9786 48.0448 1.00270580 17923
UTC large
Height (km)
Speed (km/s)
/
Latitude / Longitude
Inclination (degrees)
Orbital Period (minutes)
Azimuth
Elevation
Range (km)
Doppler Factor

Next 0 passes for location: London (51.5072 / 0.1276)

Sorry there are no passes over London.
SXM-8